EN

Hourly Weather Altayskoye

Today, 18 January, Monday

Time Temperature Precipitation Wind Pressure Humidity
00:00 -10°C° 0 mm 1 mps 727 mmHg 76%
01:00 -10°C° 0 mm 1 mps 726 mmHg 76%
02:00 -12°C° 0 mm 2 mps 726 mmHg 75%
03:00 -12°C° 0 mm 2 mps 725 mmHg 75%
04:00 -10°C° 0 mm 2 mps 725 mmHg 73%
05:00 -10°C° 0 mm 2 mps 724 mmHg 72%
06:00 -9°C° 0 mm 2 mps 724 mmHg 71%
07:00 -10°C° 0 mm 3 mps 723 mmHg 70%
08:00 -9°C° 0 mm 3 mps 723 mmHg 70%
09:00 -9°C° 0 mm 3 mps 722 mmHg 69%
10:00 -6°C° 0 mm 2 mps 722 mmHg 72%
11:00 -5°C° 0 mm 2 mps 722 mmHg 75%
12:00 -2°C° 0 mm 1 mps 722 mmHg 77%
13:00 -2°C° 0 mm 1 mps 721 mmHg 79%
14:00 -2°C° 0 mm 1 mps 721 mmHg 81%
15:00 -2°C° 0 mm 1 mps 720 mmHg 83%
16:00 -3°C° 0 mm 1 mps 721 mmHg 83%
17:00 -4°C° 0 mm 1 mps 721 mmHg 83%
18:00 -6°C° 0 mm 1 mps 722 mmHg 83%
19:00 -7°C° 0 mm 1 mps 722 mmHg 85%
20:00 -8°C° 0 mm 1 mps 722 mmHg 87%
21:00 -9°C° 0 mm 1 mps 722 mmHg 90%
22:00 -9°C° 0 mm 1 mps 723 mmHg 91%
23:00 -9°C° 0 mm 1 mps 723 mmHg 92%

Tomorrow, 19 January, Tuesday

Time Temperature Precipitation Wind Pressure Humidity
00:00 -10°C° 0 mm 1 mps 724 mmHg 93%
01:00 -10°C° 0.1 mm 1 mps 724 mmHg 94%
02:00 -10°C° 0.1 mm 1 mps 724 mmHg 95%
03:00 -10°C° 0.1 mm 1 mps 724 mmHg 96%
04:00 -10°C° 0.2 mm 1 mps 724 mmHg 96%
05:00 -11°C° 0.2 mm 1 mps 724 mmHg 96%
06:00 -12°C° 0.2 mm 1 mps 725 mmHg 96%
07:00 -12°C° 0.1 mm 0 mps 725 mmHg 96%
08:00 -13°C° 0.1 mm 0 mps 725 mmHg 96%
09:00 -13°C° 0.1 mm 0 mps 725 mmHg 96%
10:00 -12°C° 0 mm 0 mps 725 mmHg 95%
11:00 -11°C° 0 mm 0 mps 725 mmHg 94%
12:00 -10°C° 0 mm 0 mps 725 mmHg 93%
13:00 -10°C° 0.1 mm 0 mps 725 mmHg 94%
14:00 -11°C° 0.1 mm 0 mps 725 mmHg 95%
15:00 -11°C° 0.1 mm 0 mps 725 mmHg 95%
16:00 -12°C° 0.1 mm 0 mps 725 mmHg 96%
17:00 -13°C° 0.1 mm 0 mps 725 mmHg 96%
18:00 -14°C° 0.1 mm 0 mps 725 mmHg 96%
19:00 -14°C° 0.1 mm 0 mps 725 mmHg 96%
20:00 -13°C° 0.1 mm 0 mps 725 mmHg 96%
21:00 -13°C° 0.1 mm 0 mps 725 mmHg 96%
22:00 -13°C° 0.1 mm 0 mps 725 mmHg 96%
23:00 -13°C° 0.1 mm 0 mps 725 mmHg 96%

Day after tomorrow, 20 January, Wednesday

Time Temperature Precipitation Wind Pressure Humidity
00:00 -13°C° 0.1 mm 0 mps 725 mmHg 96%
01:00 -13°C° 0.2 mm 0 mps 725 mmHg 96%
02:00 -13°C° 0.2 mm 0 mps 725 mmHg 96%
03:00 -13°C° 0.2 mm 0 mps 726 mmHg 96%
04:00 -14°C° 0.1 mm 0 mps 726 mmHg 96%
05:00 -14°C° 0.1 mm 0 mps 726 mmHg 96%
06:00 -14°C° 0.1 mm 0 mps 727 mmHg 96%
07:00 -15°C° 0 mm 1 mps 727 mmHg 95%
08:00 -15°C° 0 mm 1 mps 727 mmHg 94%
09:00 -15°C° 0 mm 1 mps 727 mmHg 94%
10:00 -13°C° 0 mm 1 mps 727 mmHg 93%
11:00 -12°C° 0 mm 1 mps 727 mmHg 92%
12:00 -11°C° 0 mm 1 mps 727 mmHg 91%
13:00 -10°C° 0 mm 1 mps 727 mmHg 91%
14:00 -10°C° 0 mm 1 mps 727 mmHg 92%
15:00 -10°C° 0 mm 1 mps 727 mmHg 92%
16:00 -10°C° 0 mm 1 mps 726 mmHg 93%
17:00 -10°C° 0 mm 1 mps 726 mmHg 93%
18:00 -10°C° 0 mm 1 mps 726 mmHg 93%
19:00 -10°C° 0 mm 1 mps 726 mmHg 92%
20:00 -10°C° 0 mm 1 mps 726 mmHg 91%
21:00 -9°C° 0 mm 1 mps 726 mmHg 90%
22:00 -9°C° 0 mm 1 mps 726 mmHg 90%
23:00 -8°C° 0 mm 1 mps 725 mmHg 90%

21 January, Thursday

Time Temperature Precipitation Wind Pressure Humidity
00:00 -7°C° 0 mm 1 mps 725 mmHg 90%
01:00 -6°C° 0.1 mm 1 mps 725 mmHg 91%
02:00 -6°C° 0.1 mm 1 mps 725 mmHg 92%
03:00 -4°C° 0.1 mm 1 mps 725 mmHg 93%
04:00 -4°C° 0.1 mm 1 mps 725 mmHg 91%
05:00 -3°C° 0.1 mm 1 mps 725 mmHg 89%
06:00 -3°C° 0.1 mm 1 mps 725 mmHg 87%
07:00 -3°C° 0 mm 1 mps 725 mmHg 85%
08:00 -3°C° 0 mm 1 mps 725 mmHg 83%
09:00 -3°C° 0 mm 1 mps 725 mmHg 81%
10:00 -2°C° 0 mm 1 mps 725 mmHg 82%
11:00 -1°C° 0 mm 1 mps 724 mmHg 82%
12:00 -1°C° 0 mm 0 mps 724 mmHg 83%
13:00 -1°C° 0 mm 0 mps 724 mmHg 84%
14:00 -2°C° 0 mm 0 mps 724 mmHg 86%
15:00 -2°C° 0 mm 0 mps 723 mmHg 87%
16:00 -2°C° 0 mm 1 mps 723 mmHg 88%
17:00 -2°C° 0 mm 1 mps 723 mmHg 88%
18:00 -3°C° 0 mm 1 mps 722 mmHg 89%
19:00 -3°C° 0 mm 1 mps 721 mmHg 89%
20:00 -3°C° 0 mm 1 mps 721 mmHg 89%
21:00 -4°C° 0 mm 1 mps 720 mmHg 89%
22:00 -3°C° 0 mm 1 mps 719 mmHg 87%
23:00 -3°C° 0 mm 1 mps 718 mmHg 86%

22 January, Friday

Time Temperature Precipitation Wind Pressure Humidity
00:00 -5°C° 0 mm 2 mps 718 mmHg 84%
01:00 -3°C° 0 mm 1 mps 717 mmHg 85%
02:00 -3°C° 0 mm 1 mps 717 mmHg 86%
03:00 -2°C° 0 mm 1 mps 716 mmHg 86%
04:00 -3°C° 0.4 mm 1 mps 716 mmHg 90%
05:00 -3°C° 0.4 mm 1 mps 717 mmHg 93%
06:00 -5°C° 0.4 mm 2 mps 717 mmHg 96%
07:00 -6°C° 0.3 mm 2 mps 717 mmHg 96%
08:00 -8°C° 0.3 mm 3 mps 718 mmHg 96%
09:00 -8°C° 0.3 mm 3 mps 719 mmHg 95%
10:00 -9°C° 0.3 mm 3 mps 719 mmHg 95%
11:00 -10°C° 0.3 mm 3 mps 719 mmHg 94%
12:00 -10°C° 0.3 mm 3 mps 720 mmHg 94%
13:00 -10°C° 0.3 mm 2 mps 720 mmHg 94%
14:00 -12°C° 0.3 mm 2 mps 720 mmHg 94%
15:00 -13°C° 0.3 mm 2 mps 720 mmHg 94%
16:00 -14°C° 0.4 mm 2 mps 720 mmHg 95%
17:00 -13°C° 0.4 mm 1 mps 721 mmHg 95%
18:00 -14°C° 0.4 mm 1 mps 721 mmHg 96%
19:00 -14°C° 0.3 mm 1 mps 722 mmHg 96%
20:00 -15°C° 0.3 mm 1 mps 722 mmHg 96%
21:00 -15°C° 0.3 mm 1 mps 723 mmHg 97%
22:00 -16°C° 0.1 mm 1 mps 723 mmHg 97%
23:00 -17°C° 0.1 mm 0 mps 724 mmHg 97%

23 January, Saturday

Time Temperature Precipitation Wind Pressure Humidity
00:00 -18°C° 0.1 mm 0 mps 724 mmHg 97%
01:00 -18°C° 0 mm 0 mps 724 mmHg 97%
02:00 -19°C° 0 mm 0 mps 725 mmHg 98%
03:00 -19°C° 0 mm 1 mps 725 mmHg 98%
04:00 -19°C° 0 mm 1 mps 725 mmHg 96%
05:00 -18°C° 0 mm 1 mps 725 mmHg 94%
06:00 -17°C° 0 mm 1 mps 725 mmHg 92%
07:00 -16°C° 0 mm 1 mps 725 mmHg 90%
08:00 -14°C° 0 mm 1 mps 724 mmHg 88%
09:00 -13°C° 0 mm 1 mps 724 mmHg 86%
10:00 -14°C° 0 mm 2 mps 724 mmHg 85%
11:00 -13°C° 0 mm 2 mps 723 mmHg 84%
12:00 -12°C° 0 mm 2 mps 723 mmHg 83%
13:00 -12°C° 0 mm 2 mps 723 mmHg 82%
14:00 -13°C° 0 mm 3 mps 724 mmHg 81%
15:00 -13°C° 0 mm 3 mps 724 mmHg 80%
16:00 -13°C° 0 mm 3 mps 724 mmHg 78%
17:00 -14°C° 0 mm 3 mps 724 mmHg 76%
18:00 -15°C° 0 mm 3 mps 725 mmHg 74%
19:00 -16°C° 0 mm 4 mps 724 mmHg 71%
20:00 -15°C° 0 mm 5 mps 724 mmHg 67%
21:00 -16°C° 0 mm 6 mps 724 mmHg 64%
22:00 -15°C° 0.1 mm 5 mps 724 mmHg 68%
23:00 -15°C° 0.1 mm 4 mps 724 mmHg 73%
Show more